Location: St. Louis
(38.6270°N, 90.1994°W)
Time: 10:02:08
(UTC-05:00)

COSMOS 2251 DEB - Visible Passes

Search period start: 03 July 2022 00:00
Search period end: 13 July 2022 00:00
Orbit: 579 x 630 km, 74.1° (Epoch: 02 July)

Date Brightness Start Highest point End Pass type
(mag) Time Alt. Az. Time Alt. Az. Time Alt. Az.
09 Jul ? 04:26:10 10° ESE 04:27:40 12° E 04:29:11 10° ENE visible
10 Jul ? 04:36:46 10° SSE 04:40:03 22° E 04:43:24 10° NE visible
11 Jul ? 04:48:30 10° S 04:52:31 41° ESE 04:56:36 10° NNE visible
12 Jul ? 05:00:46 10° SSW 05:05:03 80° ESE 05:09:26 10° NNE visible
